Location: Heiligenberg
(48.5381°N, 7.3897°E)
Time: 02:43:35
(UTC+00:00)

SL-14 R/B - Pass Details

Date: 26 May 2022
Orbit: 517 x 551 km, 82.4° (Epoch: 26 June)

Event Time Altitude Azimuth Distance (km) Brightness Sun altitude
Exits shadow 01:03:05 27° 250° (WSW) 1,025 4.3 -17.2°
Maximum altitude 01:04:16 34° 286° (WNW) 886 4.3 -17.1°
Drops below altitude 10° 01:07:50 10° 353° (N) 1,771 6.8 -16.8°
Sets 01:10:08 0° 3° (N) 2,660 8.1 -16.7°
